Hundvaag 1 weather for Sep 1991
Month no. 51
Obs.
Da.
Temp. Dew Point Precip. Wind
Speed
Wind gusts Cloud cover Press. Humidity Wind dir. Sunny OPT
01.09.1991 15,3   0,0             1  
02.09.1991 12,1   0,0             1  
03.09.1991 13,9   0,0             1  
04.09.1991 12,2   2,3             1  
05.09.1991 10,8   1,9             1  
06.09.1991 9,1   0,0             1  
07.09.1991 10,8   1,3             1  
08.09.1991 13,7   0,5             1  
09.09.1991 11,3   0,0             1  
10.09.1991 12,6   2,1                
11.09.1991 8,2   10,9                
12.09.1991 8,0   0,4             1  
13.09.1991 7,3   1,0             1  
14.09.1991 13,9   19,0                
15.09.1991 12,7   25,2             1  
16.09.1991 6,6   3,0             1  
17.09.1991 11,8   17,0                
18.09.1991 12,1   4,4                
19.09.1991 7,6   17,2             1  
20.09.1991 10,1   6,0                
21.09.1991 12,1   0,9             1  
22.09.1991 12,8   39,9             1  
23.09.1991 7,3   20,2                
24.09.1991 11,2   11,9             1  
25.09.1991 10,0   4,0                
26.09.1991 6,3   3,0             1  
27.09.1991 4,9   1,2             1  
28.09.1991 6,6   0,0             1  
29.09.1991 5,1   0,0             1  
30.09.1991 7,7   6,0                
                       
Avrg/Sum 10,1   199,3             21